Weather History for Abadan, Iran

Change the Weather History Date:

Monday, February 18, 2013

  Actual Average Record
Temperature  
Mean Temperature 60 °F -  
Max Temperature 73 °F 74 °F - ()
Min Temperature 48 °F 52 °F - ()
Degree Days  
Heating Degree Days 4    
Growing Degree Days 10 (Base 50)    
Moisture  
Dew Point 40 °F    
Average Humidity 46    
Maximum Humidity 82    
Minimum Humidity 16    
Precipitation  
Precipitation 0.00 in 0.03 in - ()
Sea Level Pressure  
Sea Level Pressure 29.95 in    
Wind  
Wind Speed 6 mph ()    
Max Wind Speed 18 mph    
Max Gust Speed -    
Visibility 6.2 miles    
Events      
T = Trace of Precipitation, MM = Missing Value Source: Averaged Metar Reports

Daily Weather History Graph

Daily Weather History Graph

Search for Another Location

Airport:

Trip Planner

Search our weather history database for the weather conditions in past years. The results will help you decide how hot, cold, wet, or windy it might be!

Date:

Astronomy

Feb. 18, 2013 Rise Set
Actual Time 6:54 AM IRST 6:07 PM IRST
Civil Twilight 6:30 AM IRST 6:32 PM IRST
Nautical Twilight 6:02 AM IRST 7:00 PM IRST
Astronomical Twilight 5:34 AM IRST 7:28 PM IRST
Moon 11:48 AM IRST 1:03 AM IRST
Length of Visible Light 12h 01m
Length of Day
11h 13m
First Quarter, 55% of the Moon is Illuminated
Feb 18
First Quarter
Feb 25
Full
Mar 5
Last Quarter
Mar 11
New
Mar 19
First Quarter

Hourly Weather History & Observations

Time (IRST) Temp. Dew Point Humidity Pressure Visibility Wind Dir Wind Speed Gust Speed Precip Events Conditions
12:30 AM 57.2 °F 44.6 °F 63% 29.95 in - NW 6.9 mph - N/A   Clear
1:30 AM 57.2 °F 44.6 °F 63% 29.95 in - WNW 6.9 mph - N/A   Clear
2:30 AM 57.2 °F 41.0 °F 55% 29.95 in - NW 6.9 mph - N/A   Clear
3:30 AM 56 °F 41 °F 46% 29.97 in 6 mi NNW 4.5 mph - -  
3:30 AM 55.4 °F 41.0 °F 58% 29.95 in - NNW 4.6 mph - N/A   Clear
4:30 AM 53.6 °F 44.6 °F 72% 29.95 in - WNW 4.6 mph - N/A   Clear
5:30 AM 50.0 °F 44.6 °F 82% 29.95 in - WNW 4.6 mph - N/A   Clear
6:30 AM 48.2 °F 41.0 °F 76% 29.95 in - Calm Calm - N/A   Clear
7:30 AM 48.2 °F 41.0 °F 76% 29.95 in - Calm Calm - N/A   Clear
8:30 AM 53.6 °F 44.6 °F 72% 29.98 in - WNW 4.6 mph - N/A   Clear
9:30 AM 58 °F 44 °F 50% 30.00 in 6 mi NNW 4.5 mph - -   Clear
9:30 AM 59.0 °F 44.6 °F 59% 29.98 in - NNW 4.6 mph - N/A   Clear
10:30 AM 64.4 °F 41.0 °F 42% 29.98 in - WNW 9.2 mph - N/A   Clear
11:30 AM 68.0 °F 39.2 °F 35% 29.98 in - North 9.2 mph - N/A   Clear
12:30 PM 69.8 °F 37.4 °F 31% 29.98 in - NW 11.5 mph - N/A   Clear
1:30 PM 71.6 °F 35.6 °F 27% 29.95 in - NNW 11.5 mph - N/A   Clear
2:30 PM 71.6 °F 35.6 °F 27% 29.95 in - NNW 16.1 mph - N/A   Clear
3:00 PM 73.4 °F 37.4 °F 27% 29.92 in - West 16.1 mph - N/A   Clear
3:30 PM 73 °F 37 °F 16% 29.94 in 7 mi NNW 8.9 mph - -  
3:30 PM 73.4 °F 37.4 °F 27% 29.92 in - NNW 9.2 mph - N/A   Clear
4:00 PM 73.4 °F 35.6 °F 25% 29.92 in - NNW 18.4 mph - N/A   Clear
4:30 PM 73.4 °F 35.6 °F 25% 29.92 in - NNW 9.2 mph - N/A   Clear
5:30 PM 71.6 °F 33.8 °F 25% 29.92 in - NW 9.2 mph - N/A   Clear
6:00 PM 69.8 °F 35.6 °F 28% 29.92 in - NNW 9.2 mph - N/A   Clear
6:30 PM 69.8 °F 35.6 °F 28% 29.92 in - NNW 6.9 mph - N/A   Clear
7:30 PM 68.0 °F 37.4 °F 33% 29.95 in - NNW 6.9 mph - N/A   Clear
8:30 PM 64.4 °F 41.0 °F 42% 29.95 in - Calm Calm - N/A   Clear
9:30 PM 62 °F 45 °F 43% 29.98 in 6 mi Calm Calm - -   Partly Cloudy
9:30 PM 62.6 °F 44.6 °F 52% 29.95 in - Calm Calm - N/A   Clear
10:30 PM 59.0 °F 44.6 °F 59% 29.98 in - Calm Calm - N/A   Clear
11:00 PM 59.0 °F 42.8 °F 55% 29.98 in - Calm Calm - N/A   Clear
11:30 PM 57.2 °F 46.4 °F 67% 29.98 in - Calm Calm - N/A   Clear